Weather History for Cold Bay, AK

Change the Weather History Date:

Wednesday, July 24, 2013

  Actual Average Record
Temperature  
Mean Temperature 56 °F 52 °F  
Max Temperature 60 °F 56 °F 68 °F (1968)
Min Temperature 52 °F 47 °F 38 °F (1989)
Degree Days  
Heating Degree Days 9 13  
Month to date heating degree days 288 347  
Since 1 June heating degree days 797 909  
Since 1 July heating degree days 288 347  
Cooling Degree Days 0    
Month to date cooling degree days 0  
Year to date cooling degree days 0  
Since 1 June cooling degree days 0  
Growing Degree Days 6 (Base 50)    
Moisture  
Dew Point 52 °F    
Average Humidity 94    
Maximum Humidity 100    
Minimum Humidity 82    
Precipitation  
Precipitation 0.03 in 0.08 in 0.46 in (1969)
Month to date precipitation 2.93 1.85  
Year to date precipitation 20.69 18.43  
Snow  
Snow 0.00 in 0.00 in 0.00 in (2014)
Month to date snowfall 0.0 0.0  
Since 1 June snowfall 0.0 0.0  
Since 1 July snowfall 0.0 0.0  
Snow Depth 0.00 in    
Sea Level Pressure  
Sea Level Pressure 30.27 in    
Wind  
Wind Speed 12 mph (NW)    
Max Wind Speed 17 mph    
Max Gust Speed 20 mph    
Visibility 3 miles    
Events Fog , Rain    
T = Trace of Precipitation, MM = Missing Value Source: NWS Daily Summary

Daily Weather History Graph

Daily Weather History Graph

Search for Another Location

Airport:

Trip Planner

Search our weather history database for the weather conditions in past years. The results will help you decide how hot, cold, wet, or windy it might be!

Date:

Astronomy

Jul. 24, 2013 Rise Set
Actual Time 6:45 AM AKDT 11:08 PM AKDT
Civil Twilight 5:55 AM AKDT 11:57 PM AKDT
Nautical Twilight 4:38 AM AKDT 1:13 AM AKDT
Astronomical Twilight 3:29 AM AKDT 2:25 AM AKDT
Moon 11:36 PM AKDT (7/24) 9:58 AM AKDT (7/24)
Length of Visible Light 18h 01m
Length of Day
16h 22m
Waning Gibbous, 94% of the Moon is Illuminated
Jul 24
Waning Gibbous
Jul 29
Last Quarter
Aug 6
New
Aug 14
First Quarter
Aug 20
Full

Hourly Weather History & Observations

Time (AKDT) Temp. Dew Point Humidity Pressure Visibility Wind Dir Wind Speed Gust Speed Precip Events Conditions
12:53 AM 53.1 °F 51.1 °F 93% 30.37 in 10.0 mi WNW 12.7 mph - N/A   Overcast
1:53 AM 53.1 °F 51.1 °F 93% 30.36 in 10.0 mi WNW 12.7 mph - N/A   Overcast
2:53 AM 53.1 °F 52.0 °F 96% 30.35 in 10.0 mi WNW 13.8 mph - N/A   Overcast
3:19 AM 53.6 °F 51.8 °F 94% 30.34 in 1.5 mi WNW 13.8 mph - N/A   Overcast
3:31 AM 53.6 °F 51.8 °F 94% 30.33 in 0.8 mi WNW 13.8 mph - N/A   Mist
3:53 AM 53.1 °F 51.1 °F 93% 30.33 in 0.5 mi WNW 13.8 mph - N/A Fog Fog
4:25 AM 53.6 °F 51.8 °F 94% 30.33 in 1.0 mi West 13.8 mph - 0.01 in   Light Drizzle
4:53 AM 52.0 °F 51.1 °F 97% 30.33 in 1.0 mi WNW 15.0 mph - 0.01 in   Light Drizzle
5:53 AM 52.0 °F 51.1 °F 97% 30.32 in 1.5 mi WNW 11.5 mph - 0.00 in   Overcast
6:53 AM 52.0 °F 51.1 °F 97% 30.30 in 1.2 mi West 10.4 mph - 0.02 in   Light Drizzle
7:32 AM 51.8 °F 51.8 °F 100% 30.29 in 0.8 mi WNW 11.5 mph - 0.00 in   Light Drizzle
7:53 AM 52.0 °F 51.1 °F 97% 30.29 in 0.5 mi WNW 11.5 mph - 0.00 in Fog Light Drizzle
8:53 AM 52.0 °F 51.1 °F 97% 30.29 in 0.5 mi WNW 11.5 mph - 0.00 in Fog Light Drizzle
9:53 AM 53.1 °F 52.0 °F 96% 30.27 in 0.5 mi WNW 11.5 mph - 0.00 in Fog Light Drizzle
10:13 AM 53.6 °F 51.8 °F 94% 30.27 in 1.0 mi WNW 11.5 mph - 0.00 in   Mist
10:53 AM 53.1 °F 52.0 °F 96% 30.27 in 1.0 mi WNW 12.7 mph - 0.00 in   Mist
11:12 AM 53.6 °F 51.8 °F 94% 30.26 in 0.8 mi WNW 13.8 mph - N/A   Mist
11:53 AM 53.1 °F 52.0 °F 96% 30.27 in 0.5 mi WNW 12.7 mph - N/A Fog Fog
12:10 PM 53.6 °F 51.8 °F 94% 30.27 in 1.0 mi WNW 12.7 mph - 0.00 in Rain Light Rain
12:36 PM 53.6 °F 51.8 °F 94% 30.27 in 2.0 mi WNW 13.8 mph - 0.00 in   Overcast
12:53 PM 53.1 °F 52.0 °F 96% 30.28 in 1.0 mi WNW 11.5 mph - 0.00 in   Overcast
1:53 PM 54.0 °F 52.0 °F 93% 30.27 in 1.2 mi NW 11.5 mph - N/A   Overcast
2:26 PM 53.6 °F 53.6 °F 100% 30.27 in 2.5 mi NW 11.5 mph - 0.00 in   Overcast
2:53 PM 54.0 °F 53.1 °F 97% 30.27 in 3.0 mi NW 12.7 mph - 0.00 in Rain Light Rain
3:53 PM 55.9 °F 54.0 °F 93% 30.26 in 10.0 mi NW 10.4 mph - 0.00 in   Overcast
4:53 PM 55.9 °F 53.1 °F 90% 30.25 in 8.0 mi NW 15.0 mph - N/A   Overcast
5:38 PM 60.8 °F 55.4 °F 82% 30.24 in 9.0 mi NW 13.8 mph - N/A   Overcast
5:53 PM 59.0 °F 55.9 °F 90% 30.24 in 6.0 mi NW 12.7 mph - N/A   Overcast
6:09 PM 57.2 °F 55.4 °F 94% 30.24 in 5.0 mi WNW 15.0 mph - N/A   Overcast
6:53 PM 55.9 °F 54.0 °F 93% 30.23 in 4.0 mi NW 13.8 mph - N/A   Overcast
7:17 PM 55.4 °F 53.6 °F 94% 30.23 in 2.5 mi NW 12.7 mph - 0.00 in Rain Light Rain
7:24 PM 55.4 °F 53.6 °F 94% 30.22 in 3.0 mi NW 12.7 mph - 0.00 in Rain Light Rain
7:34 PM 55.4 °F 53.6 °F 94% 30.22 in 2.5 mi NW 12.7 mph - 0.00 in Rain Light Rain
7:53 PM 55.0 °F 53.1 °F 93% 30.22 in 3.0 mi NW 13.8 mph - 0.00 in   Overcast
8:01 PM 53.6 °F 51.8 °F 94% 30.22 in 2.5 mi NW 13.8 mph - 0.00 in Rain Light Rain
8:16 PM 55.4 °F 53.6 °F 94% 30.22 in 3.0 mi WNW 11.5 mph - 0.00 in   Overcast
8:53 PM 54.0 °F 52.0 °F 93% 30.22 in 3.0 mi NW 15.0 mph - 0.00 in   Overcast
9:53 PM 53.1 °F 51.1 °F 93% 30.21 in 2.0 mi NW 10.4 mph - N/A   Overcast
10:02 PM 53.6 °F 51.8 °F 94% 30.21 in 1.2 mi NW 13.8 mph - N/A   Overcast
10:38 PM 53.6 °F 51.8 °F 94% 30.21 in 0.8 mi NW 11.5 mph - N/A   Mist
10:53 PM 53.1 °F 51.1 °F 93% 30.21 in 1.5 mi NW 10.4 mph - N/A   Overcast
11:03 PM 53.6 °F 51.8 °F 94% 30.21 in 3.0 mi NW 10.4 mph - N/A   Overcast
11:44 PM 51.8 °F 51.8 °F 100% 30.21 in 2.5 mi NW 9.2 mph - N/A   Overcast
11:53 PM 52.0 °F 51.1 °F 97% 30.22 in 2.5 mi NW 10.4 mph - N/A   Overcast